Torna al catalogo

STARLINK-11477

AttivoComunicazioniVLEO
NORAD 62471·PAYLOAD·🇺🇸 United States

Lanciato Dec 31, 2024 da Cape Canaveral Space Force Station

Loading…

Prossimi Passaggi (prossime 24 ore)

TLE

AggiornatoSource: CelesTrak SupGP

Epoca: Sep 14, 2026, 22:38 UTC

1 62471C 24254K   26257.94354167 -.00023429  00000+0 -18207-3 0  2577
2 62471  43.0002 162.0103 0001505 269.4907 258.9172 15.70837622    18

Traccia STARLINK-11477 in tempo reale con AllMySat

Download on the App Store